Find Starlink 30827

NORAD ID: 58195 Int'l Des: 2023-167 Owner: SPXS Country: US Constellation: starlink operational
LEOCIRCULAR

Live Position

Loading 3D Globe...

About Starlink 30827

Description loading...

Upcoming Passes

Passes for default location (London). Set your location on the main map for personalized predictions.

Altitude History

Loading altitude history...

Two-Line Element Set

1 58195U 23167W 26125.53683999 .00000351 00000-0 22310-4 0 9996
2 58195 43.0076 181.9687 0001874 272.9249 87.1388 15.27546079139683
Epoch: May 5, 2026 • Age: 8 hours

Current Status

Altitude 485.3 km
Velocity 7.63 km/s
Sub-Earth Point 32.98°N, 133.18°E
Launch Date Oct 30, 2023
Age 2.5 years
Type internet

Technical Details

Classification Payload
Mass 730.00 kg
Dry Mass 700.00 kg
Total Mass 730.00 kg
Length 0.30 m
Diameter 4.10 m
Span 29.00 m
Shape Box + pan
Manufacturer SPXS
Bus Type Starlink V2M
Phase Status In Orbit
Owner/State SPXS/US

Most Searched